| time (UTC) | temp F | wind direction | speed MPH | gust MPH | rain 1hr in | rain 24hr in | rain mn in | humidity % | barometer mb |
| 20260506062042 | 45 | 304 | 0.0 | 0.0 | 0.05 | 1.27 | 0.10 | 98 | 1004.9 |
| 20260506061946 | 45 | 304 | 0.0 | 0.0 | 0.05 | 1.27 | 0.10 | 98 | 1004.8 |
| 20260506061209 | 46 | 304 | 0.0 | 0.0 | 0.05 | 1.26 | 0.09 | 98 | 1004.9 |
| 20260506060427 | 45 | 304 | 0.0 | 0.0 | 0.05 | 1.26 | 0.09 | 98 | 1004.8 |
| 20260506060119 | 45 | 304 | 0.0 | 0.0 | 0.05 | 1.26 | 0.09 | 98 | 1004.8 |
| 20260506051016 | 46 | 304 | 0.0 | 0.0 | 0.03 | 1.21 | 0.04 | 98 | 1005.4 |
| 20260506050441 | 46 | 304 | 0.0 | 0.0 | 0.04 | 1.21 | 0.04 | 98 | 1005.5 |
| 20260506045127 | 47 | 304 | 0.0 | 0.0 | 0.05 | 1.21 | 0.04 | 98 | 1005.6 |
| 20260506044328 | 47 | 304 | 0.0 | 0.0 | 0.05 | 1.20 | 0.04 | 98 | 1005.7 |
| 20260506043751 | 47 | 304 | 0.0 | 0.0 | 0.05 | 1.21 | 0.03 | 98 | 1005.7 |
| 20260506043244 | 47 | 304 | 0.0 | 0.0 | 0.06 | 1.21 | 0.03 | 98 | 1005.8 |
| 20260506042713 | 47 | 304 | 0.0 | 0.0 | 0.07 | 1.21 | 0.03 | 98 | 1005.9 |
| 20260506042206 | 47 | 304 | 0.0 | 0.0 | 0.07 | 1.20 | 0.03 | 98 | 1006.1 |
| 20260506041710 | 47 | 304 | 0.0 | 0.0 | 0.08 | 1.20 | 0.02 | 98 | 1006.0 |
| 20260506041355 | 47 | 304 | 0.0 | 0.0 | 0.10 | 1.19 | 0.01 | 98 | 1006.1 |
| 20260506040600 | 47 | 304 | 0.0 | 0.0 | 0.10 | 1.18 | 0.01 | 98 | 1006.0 |
| 20260506040042 | 47 | 304 | 0.0 | 0.0 | 0.12 | 1.18 | 0.00 | 98 | 1005.9 |
| 20260506035537 | 47 | 304 | 0.0 | 0.0 | 0.14 | 1.18 | 1.18 | 98 | 1006.1 |
| 20260506034959 | 48 | 304 | 0.0 | 0.0 | 0.14 | 1.17 | 1.17 | 98 | 1006.2 |
| 20260506034655 | 48 | 304 | 0.0 | 0.0 | 0.14 | 1.16 | 1.17 | 98 | 1006.3 |
| 20260506033859 | 48 | 304 | 0.0 | 0.0 | 0.16 | 1.16 | 1.16 | 98 | 1006.3 |
| 20260506033342 | 48 | 304 | 0.0 | 0.0 | 0.16 | 1.15 | 1.15 | 98 | 1006.1 |
| 20260506032826 | 48 | 304 | 0.0 | 0.0 | 0.17 | 1.14 | 1.15 | 98 | 1006.1 |
| 20260506032320 | 48 | 304 | 0.0 | 0.0 | 0.18 | 1.14 | 1.14 | 98 | 1006.1 |
| 20260506031807 | 48 | 304 | 0.0 | 0.0 | 0.17 | 1.12 | 1.12 | 98 | 1006.0 |
| 20260506031255 | 48 | 304 | 0.0 | 0.0 | 0.17 | 1.10 | 1.10 | 98 | 1006.3 |
| 20260506030753 | 48 | 304 | 0.0 | 0.0 | 0.16 | 1.08 | 1.08 | 98 | 1006.0 |
| 20260506030253 | 48 | 304 | 0.0 | 0.0 | 0.16 | 1.07 | 1.07 | 98 | 1005.9 |
| 20260506025723 | 48 | 304 | 0.0 | 0.0 | 0.15 | 1.05 | 1.05 | 98 | 1005.9 |
| 20260506025151 | 48 | 304 | 0.0 | 0.0 | 0.14 | 1.03 | 1.03 | 98 | 1005.7 |
| 20260506024626 | 49 | 304 | 0.0 | 0.0 | 0.13 | 1.02 | 1.02 | 98 | 1005.7 |
| 20260506024313 | 49 | 304 | 0.0 | 0.0 | 0.13 | 1.01 | 1.01 | 98 | 1005.8 |
| 20260506023524 | 49 | 304 | 0.0 | 0.0 | 0.11 | 0.99 | 1.00 | 98 | 1005.8 |
| 20260506022951 | 49 | 304 | 0.0 | 0.0 | 0.11 | 0.98 | 0.98 | 98 | 1005.7 |
| 20260506022642 | 49 | 304 | 0.0 | 0.0 | 0.09 | 0.96 | 0.96 | 98 | 1005.9 |
| 20260506021845 | 49 | 304 | 0.0 | 0.0 | 0.09 | 0.96 | 0.96 | 98 | 1006.0 |
| 20260506021309 | 49 | 304 | 0.0 | 0.0 | 0.07 | 0.93 | 0.94 | 98 | 1006.0 |
| 20260506020739 | 49 | 304 | 0.0 | 0.0 | 0.07 | 0.92 | 0.92 | 98 | 1005.9 |
| 20260506020206 | 49 | 304 | 0.0 | 0.0 | 0.07 | 0.91 | 0.91 | 98 | 1005.9 |
| 20260506015858 | 49 | 304 | 0.0 | 0.0 | 0.06 | 0.90 | 0.90 | 98 | 1005.9 |
| 20260506015102 | 49 | 304 | 0.0 | 0.0 | 0.06 | 0.89 | 0.89 | 98 | 1005.7 |
| 20260506014548 | 49 | 304 | 0.0 | 0.0 | 0.05 | 0.88 | 0.88 | 98 | 1005.6 |
| 20260506014013 | 49 | 304 | 0.0 | 0.0 | 0.05 | 0.88 | 0.88 | 98 | 1005.5 |
| 20260506013434 | 49 | 304 | 0.0 | 0.0 | 0.05 | 0.88 | 0.88 | 98 | 1005.4 |
| 20260506012920 | 49 | 304 | 0.0 | 0.0 | 0.04 | 0.87 | 0.87 | 98 | 1005.4 |
| 20260506012347 | 49 | 304 | 0.0 | 0.0 | 0.04 | 0.87 | 0.87 | 98 | 1005.5 |
| 20260506011827 | 49 | 304 | 0.0 | 0.0 | 0.04 | 0.87 | 0.87 | 98 | 1005.4 |
| 20260506011319 | 49 | 304 | 0.0 | 0.0 | 0.03 | 0.86 | 0.86 | 98 | 1005.4 |
| 20260506010805 | 49 | 304 | 0.0 | 0.0 | 0.02 | 0.85 | 0.85 | 98 | 1005.4 |
| 20260506010239 | 49 | 304 | 0.0 | 0.0 | 0.01 | 0.84 | 0.84 | 98 | 1005.3 |
| 20260506005717 | 49 | 304 | 0.0 | 0.0 | 0.02 | 0.84 | 0.84 | 98 | 1005.4 |
| 20260506005131 | 49 | 304 | 0.0 | 0.0 | 0.01 | 0.83 | 0.83 | 98 | 1005.0 |
| 20260506004807 | 49 | 304 | 0.0 | 0.0 | 0.02 | 0.83 | 0.83 | 98 | 1005.2 |
| 20260506004230 | 49 | 304 | 0.0 | 0.0 | 0.02 | 0.83 | 0.83 | 98 | 1005.1 |
| 20260506003435 | 49 | 304 | 0.0 | 0.0 | 0.04 | 0.83 | 0.83 | 98 | 1005.1 |
| 20260506002912 | 48 | 304 | 0.0 | 0.0 | 0.05 | 0.83 | 0.83 | 98 | 1005.0 |
| 20260506002353 | 49 | 304 | 0.0 | 0.0 | 0.06 | 0.83 | 0.83 | 98 | 1005.0 |
| 20260506001852 | 49 | 304 | 0.0 | 0.0 | 0.13 | 0.83 | 0.83 | 98 | 1004.9 |
| 20260506001303 | 49 | 304 | 0.0 | 0.0 | 0.15 | 0.83 | 0.83 | 98 | 1004.9 |
| 20260506000723 | 48 | 304 | 0.0 | 0.0 | 0.15 | 0.83 | 0.83 | 97 | 1004.9 |
| 20260506000126 | 48 | 304 | 0.0 | 0.0 | 0.17 | 0.83 | 0.83 | 97 | 1005.1 |
| 20260505235607 | 48 | 304 | 0.0 | 0.0 | 0.18 | 0.82 | 0.82 | 97 | 1005.3 |
| 20260505235255 | 48 | 304 | 0.0 | 0.0 | 0.20 | 0.82 | 0.82 | 97 | 1005.4 |
| 20260505234726 | 48 | 304 | 0.0 | 0.0 | 0.21 | 0.81 | 0.81 | 97 | 1005.3 |
| 20260505234222 | 48 | 304 | 0.0 | 0.0 | 0.21 | 0.80 | 0.80 | 97 | 1005.4 |
| 20260505233433 | 48 | 304 | 0.0 | 0.0 | 0.22 | 0.79 | 0.79 | 97 | 1005.3 |
| 20260505232927 | 48 | 304 | 0.0 | 0.0 | 0.22 | 0.78 | 0.78 | 97 | 1005.4 |
| 20260505232405 | 48 | 304 | 0.0 | 0.0 | 0.21 | 0.77 | 0.77 | 97 | 1005.6 |
| 20260505231903 | 48 | 304 | 0.0 | 0.0 | 0.17 | 0.70 | 0.70 | 97 | 1005.4 |
| 20260505231312 | 48 | 304 | 0.0 | 0.0 | 0.17 | 0.68 | 0.68 | 97 | 1005.4 |
| 20260505230717 | 48 | 304 | 0.0 | 0.0 | 0.19 | 0.68 | 0.68 | 97 | 1005.0 |
| 20260505230153 | 48 | 304 | 0.0 | 0.0 | 0.20 | 0.67 | 0.67 | 97 | 1005.3 |
| 20260505225651 | 48 | 304 | 0.0 | 0.0 | 0.17 | 0.64 | 0.65 | 97 | 1005.3 |
| 20260505225344 | 48 | 304 | 0.0 | 0.0 | 0.16 | 0.62 | 0.63 | 97 | 1005.6 |
| 20260505224813 | 48 | 304 | 0.0 | 0.0 | 0.16 | 0.61 | 0.61 | 97 | 1005.4 |
| 20260505224053 | 48 | 304 | 0.0 | 0.0 | 0.16 | 0.59 | 0.59 | 96 | 1005.2 |
| 20260505223523 | 48 | 304 | 0.0 | 0.0 | 0.16 | 0.57 | 0.57 | 97 | 1005.3 |
| 20260505223023 | 48 | 304 | 0.0 | 0.0 | 0.18 | 0.56 | 0.56 | 97 | 1005.3 |
| 20260505222452 | 49 | 304 | 0.0 | 0.0 | 0.19 | 0.57 | 0.56 | 96 | 1005.2 |
| 20260505221947 | 49 | 304 | 0.0 | 0.0 | 0.17 | 0.54 | 0.53 | 97 | 1005.4 |
| 20260505221423 | 49 | 304 | 0.0 | 0.0 | 0.17 | 0.52 | 0.51 | 96 | 1005.2 |
| 20260505220917 | 49 | 304 | 0.0 | 0.0 | 0.16 | 0.50 | 0.50 | 96 | 1005.3 |
| 20260505220352 | 49 | 304 | 0.0 | 0.0 | 0.15 | 0.48 | 0.48 | 96 | 1005.2 |
| 20260505215847 | 49 | 304 | 0.0 | 0.0 | 0.18 | 0.48 | 0.47 | 96 | 1004.9 |
| 20260505215305 | 49 | 304 | 0.0 | 0.0 | 0.22 | 0.48 | 0.47 | 96 | 1005.2 |
| 20260505214713 | 49 | 304 | 0.0 | 0.0 | 0.22 | 0.47 | 0.46 | 96 | 1005.2 |
| 20260505214153 | 49 | 304 | 0.0 | 3.0 | 0.24 | 0.45 | 0.44 | 96 | 1005.2 |
| 20260505213637 | 49 | 304 | 0.0 | 3.0 | 0.24 | 0.42 | 0.41 | 95 | 1005.1 |
| 20260505213113 | 49 | 331 | 0.0 | 4.0 | 0.23 | 0.39 | 0.39 | 95 | 1005.3 |
| 20260505212608 | 50 | 330 | 1.0 | 4.0 | 0.24 | 0.38 | 0.37 | 95 | 1005.3 |
| 20260505212044 | 50 | 342 | 1.0 | 4.0 | 0.25 | 0.37 | 0.36 | 95 | 1005.0 |
| 20260505211540 | 51 | 342 | 0.0 | 2.0 | 0.24 | 0.35 | 0.34 | 95 | 1005.3 |
| 20260505211029 | 51 | 342 | 0.0 | 3.0 | 0.24 | 0.34 | 0.33 | 95 | 1005.0 |
| 20260505210516 | 52 | 342 | 0.0 | 3.0 | 0.24 | 0.33 | 0.32 | 95 | 1005.0 |
| 20260505205953 | 53 | 286 | 0.0 | 3.0 | 0.24 | 0.31 | 0.30 | 94 | 1005.1 |
| 20260505205441 | 53 | 283 | 0.0 | 4.0 | 0.22 | 0.27 | 0.26 | 95 | 1005.2 |
| 20260505205151 | 54 | 320 | 0.0 | 4.0 | 0.20 | 0.25 | 0.25 | 95 | 1005.0 |
| 20260505204426 | 54 | 319 | 0.0 | 0.0 | 0.20 | 0.24 | 0.23 | 95 | 1004.9 |
| 20260505203929 | 55 | 317 | 0.0 | 0.0 | 0.16 | 0.19 | 0.18 | 95 | 1005.1 |
| 20260505203615 | 55 | 319 | 0.0 | 0.0 | 0.14 | 0.17 | 0.16 | 94 | 1004.8 |
| 20260505202805 | 55 | 319 | 0.0 | 0.0 | 0.12 | 0.15 | 0.14 | 94 | 1004.8 |
| 20260505202226 | 55 | 319 | 0.0 | 1.0 | 0.10 | 0.12 | 0.12 | 94 | 1004.9 |
| 20260505201659 | 55 | 319 | 0.0 | 1.0 | 0.09 | 0.11 | 0.11 | 93 | 1004.8 |
| 20260505201156 | 55 | 321 | 0.0 | 0.0 | 0.09 | 0.11 | 0.10 | 93 | 1005.0 |
| 20260505200655 | 56 | 321 | 0.0 | 0.0 | 0.07 | 0.09 | 0.09 | 92 | 1005.0 |
| 20260505200154 | 56 | 321 | 0.0 | 3.0 | 0.05 | 0.07 | 0.07 | 92 | 1005.1 |
| 20260505195626 | 56 | 321 | 0.0 | 3.0 | 0.04 | 0.06 | 0.05 | 91 | 1005.2 |
| 20260505195038 | 56 | 348 | 0.0 | 0.0 | 0.03 | 0.05 | 0.04 | 91 | 1005.3 |
| 20260505194457 | 56 | 348 | 0.0 | 0.0 | 0.02 | 0.04 | 0.03 | 90 | 1005.1 |
| 20260505193903 | 56 | 348 | 0.0 | 1.0 | 0.01 | 0.03 | 0.02 | 89 | 1005.2 |
| 20260505193608 | 57 | 348 | 0.0 | 5.0 | 0.01 | 0.03 | 0.02 | 88 | 1005.2 |
| 20260505192847 | 57 | 299 | 0.0 | 5.0 | 0.01 | 0.03 | 0.02 | 88 | 1005.2 |
| 20260505192324 | 58 | 278 | 0.0 | 3.0 | 0.00 | 0.02 | 0.01 | 87 | 1005.3 |
| 20260505191828 | 58 | 278 | 0.0 | 3.0 | 0.00 | 0.02 | 0.01 | 87 | 1005.3 |
| 20260505191246 | 58 | 244 | 0.0 | 0.0 | 0.00 | 0.02 | 0.01 | 86 | 1005.3 |
| 20260505190933 | 59 | 241 | 0.0 | 0.0 | 0.00 | 0.02 | 0.01 | 86 | 1005.2 |
| 20260505190349 | 59 | 271 | 0.0 | 4.0 | 0.00 | 0.02 | 0.01 | 86 | 1005.3 |
| 20260505185833 | 59 | 274 | 0.0 | 4.0 | 0.00 | 0.02 | 0.01 | 85 | 1005.3 |
| 20260505185108 | 59 | 274 | 0.0 | 3.0 | 0.00 | 0.02 | 0.01 | 84 | 1005.5 |
| 20260505184522 | 59 | 274 | 0.0 | 3.0 | 0.00 | 0.02 | 0.01 | 83 | 1005.4 |
| 20260505183950 | 59 | 275 | 1.0 | 10.0 | 0.00 | 0.02 | 0.01 | 83 | 1005.5 |
| 20260505183408 | 59 | 310 | 1.0 | 10.0 | 0.00 | 0.02 | 0.01 | 82 | 1005.4 |
| 20260505183116 | 60 | 267 | 1.0 | 5.0 | 0.00 | 0.02 | 0.01 | 82 | 1005.5 |
| 20260505182312 | 60 | 263 | 1.0 | 5.0 | 0.00 | 0.02 | 0.01 | 81 | 1005.4 |
| 20260505182017 | 60 | 137 | 1.0 | 6.0 | 0.00 | 0.02 | 0.01 | 81 | 1005.4 |
| 20260505181300 | 60 | 302 | 2.0 | 7.0 | 0.00 | 0.02 | 0.01 | 80 | 1005.3 |
| 20260505180746 | 61 | 213 | 2.0 | 15.0 | 0.00 | 0.02 | 0.01 | 80 | 1005.4 |
| 20260505180206 | 61 | 207 | 1.0 | 12.0 | 0.00 | 0.02 | 0.01 | 80 | 1005.5 |
| 20260505175652 | 61 | 268 | 1.0 | 12.0 | 0.00 | 0.02 | 0.01 | 79 | 1005.3 |
| 20260505175154 | 61 | 315 | 0.0 | 6.0 | 0.00 | 0.02 | 0.01 | 80 | 1005.3 |
| 20260505174609 | 61 | 203 | 1.0 | 4.0 | 0.00 | 0.02 | 0.01 | 80 | 1005.2 |
| 20260505174050 | 61 | 251 | 1.0 | 6.0 | 0.00 | 0.02 | 0.01 | 79 | 1005.3 |
| 20260505173553 | 61 | 267 | 1.0 | 6.0 | 0.00 | 0.02 | 0.01 | 79 | 1005.2 |
| 20260505173248 | 61 | 287 | 1.0 | 5.0 | 0.00 | 0.02 | 0.01 | 79 | 1005.2 |
| 20260505172511 | 62 | 291 | 2.0 | 9.0 | 0.00 | 0.02 | 0.01 | 78 | 1005.1 |
| 20260505171936 | 62 | 279 | 1.0 | 9.0 | 0.00 | 0.02 | 0.01 | 78 | 1005.1 |
| 20260505171424 | 62 | 263 | 0.0 | 4.0 | 0.00 | 0.02 | 0.01 | 78 | 1005.1 |
| 20260505171150 | 62 | 283 | 1.0 | 4.0 | 0.00 | 0.02 | 0.01 | 78 | 1005.1 |
| 20260505170342 | 62 | 264 | 1.0 | 7.0 | 0.00 | 0.02 | 0.01 | 77 | 1005.1 |
| 20260505165810 | 62 | 268 | 1.0 | 7.0 | 0.00 | 0.02 | 0.01 | 76 | 1005.1 |
| 20260505165525 | 62 | 280 | 1.0 | 6.0 | 0.00 | 0.02 | 0.01 | 76 | 1005.1 |
| 20260505164809 | 62 | 277 | 2.0 | 14.0 | 0.00 | 0.02 | 0.01 | 75 | 1004.9 |
| 20260505164519 | 63 | 278 | 2.0 | 14.0 | 0.00 | 0.02 | 0.01 | 74 | 1005.0 |
| 20260505164026 | 63 | 269 | 1.0 | 9.0 | 0.00 | 0.02 | 0.01 | 73 | 1004.8 |
| 20260505163230 | 64 | 252 | 2.0 | 9.0 | 0.00 | 0.02 | 0.01 | 71 | 1004.8 |
| 20260505162912 | 65 | 274 | 2.0 | 12.0 | 0.00 | 0.02 | 0.01 | 70 | 1004.8 |
| 20260505162150 | 66 | 242 | 2.0 | 12.0 | 0.00 | 0.02 | 0.01 | 68 | 1004.8 |
| 20260505161920 | 66 | 236 | 2.0 | 11.0 | 0.00 | 0.02 | 0.01 | 69 | 1004.7 |
| 20260505161150 | 66 | 286 | 2.0 | 11.0 | 0.00 | 0.02 | 0.01 | 68 | 1004.8 |
| 20260505160652 | 66 | 237 | 2.0 | 10.0 | 0.00 | 0.02 | 0.01 | 67 | 1004.9 |
| 20260505160404 | 67 | 332 | 2.0 | 10.0 | 0.00 | 0.02 | 0.01 | 64 | 1004.8 |
| 20260505153008 | 68 | 169 | 2.0 | 11.0 | 0.00 | 0.02 | 0.01 | 66 | 1003.8 |
| 20260505152438 | 67 | 199 | 3.0 | 9.0 | 0.00 | 0.02 | 0.01 | 66 | 1003.6 |
| 20260505151936 | 67 | 169 | 4.0 | 12.0 | 0.00 | 0.02 | 0.01 | 69 | 1003.7 |
| 20260505151439 | 66 | 174 | 4.0 | 12.0 | 0.00 | 0.02 | 0.01 | 68 | 1003.9 |
| 20260505150912 | 66 | 192 | 2.0 | 9.0 | 0.00 | 0.02 | 0.01 | 69 | 1003.9 |
| 20260505150605 | 65 | 164 | 2.0 | 7.0 | 0.00 | 0.02 | 0.01 | 69 | 1004.0 |
| 20260505140528 | 65 | 215 | 7.0 | 17.0 | 0.00 | 0.02 | 0.01 | 71 | 1003.5 |
| 20260505124919 | 62 | 224 | 4.0 | 12.0 | 0.00 | 0.02 | 0.01 | 73 | 1003.1 |
| 20260505124356 | 62 | 182 | 4.0 | 11.0 | 0.00 | 0.02 | 0.01 | 73 | 1003.0 |
| 20260505123852 | 62 | 200 | 5.0 | 12.0 | 0.00 | 0.02 | 0.01 | 73 | 1002.9 |
| 20260505123335 | 63 | 184 | 5.0 | 12.0 | 0.00 | 0.02 | 0.01 | 72 | 1002.8 |
| 20260505122840 | 63 | 186 | 5.0 | 11.0 | 0.00 | 0.02 | 0.01 | 72 | 1002.7 |
| 20260505122327 | 63 | 179 | 4.0 | 14.0 | 0.00 | 0.02 | 0.01 | 71 | 1002.7 |
| 20260505121831 | 63 | 173 | 6.0 | 14.0 | 0.00 | 0.02 | 0.01 | 71 | 1002.5 |
| 20260505121256 | 63 | 182 | 8.0 | 21.0 | 0.00 | 0.02 | 0.01 | 69 | 1002.4 |
| 20260505121004 | 64 | 190 | 9.0 | 21.0 | 0.00 | 0.02 | 0.01 | 68 | 1002.3 |
| 20260505120230 | 64 | 181 | 7.0 | 21.0 | 0.00 | 0.02 | 0.01 | 68 | 1002.3 |
| 20260505115716 | 64 | 215 | 4.0 | 8.0 | 0.00 | 0.02 | 0.01 | 67 | 1002.5 |
| 20260505115208 | 64 | 219 | 5.0 | 10.0 | 0.00 | 0.02 | 0.01 | 68 | 1002.4 |
| 20260505114648 | 64 | 173 | 5.0 | 10.0 | 0.00 | 0.02 | 0.01 | 68 | 1002.4 |
| 20260505114120 | 64 | 177 | 4.0 | 11.0 | 0.00 | 0.02 | 0.01 | 68 | 1002.3 |
| 20260505113617 | 64 | 177 | 3.0 | 11.0 | 0.00 | 0.02 | 0.01 | 68 | 1002.6 |
| 20260505113053 | 64 | 208 | 3.0 | 6.0 | 0.00 | 0.02 | 0.01 | 68 | 1002.5 |
| 20260505112554 | 64 | 192 | 3.0 | 7.0 | 0.00 | 0.02 | 0.01 | 68 | 1002.4 |
| 20260505112040 | 64 | 191 | 2.0 | 7.0 | 0.00 | 0.02 | 0.01 | 68 | 1002.4 |
| 20260505111804 | 64 | 162 | 2.0 | 7.0 | 0.00 | 0.02 | 0.01 | 68 | 1002.5 |
| 20260505111014 | 65 | 177 | 3.0 | 10.0 | 0.00 | 0.02 | 0.01 | 67 | 1002.5 |
| 20260505110506 | 65 | 194 | 4.0 | 11.0 | 0.00 | 0.02 | 0.01 | 68 | 1002.3 |
| 20260505101736 | 65 | 198 | 4.0 | 9.0 | 0.00 | 0.02 | 0.01 | 66 | 1001.8 |
| 20260505101224 | 65 | 190 | 4.0 | 11.0 | 0.00 | 0.02 | 0.01 | 66 | 1001.6 |
| 20260505100721 | 66 | 153 | 4.0 | 9.0 | 0.00 | 0.02 | 0.01 | 66 | 1001.5 |
| 20260505100151 | 66 | 189 | 4.0 | 11.0 | 0.00 | 0.02 | 0.01 | 66 | 1001.5 |
| 20260505095620 | 66 | 175 | 3.0 | 7.0 | 0.00 | 0.02 | 0.01 | 66 | 1001.4 |
| 20260505095118 | 66 | 172 | 3.0 | 9.0 | 0.00 | 0.02 | 0.01 | 66 | 1001.3 |
| 20260505094607 | 66 | 172 | 5.0 | 17.0 | 0.00 | 0.02 | 0.01 | 66 | 1001.2 |
| 20260505094111 | 66 | 185 | 4.0 | 17.0 | 0.00 | 0.02 | 0.01 | 66 | 1001.1 |
| 20260505093542 | 66 | 181 | 4.0 | 11.0 | 0.00 | 0.02 | 0.01 | 66 | 1001.0 |
| 20260505093042 | 66 | 190 | 4.0 | 11.0 | 0.00 | 0.02 | 0.01 | 66 | 1000.8 |
| 20260505092520 | 66 | 175 | 4.0 | 10.0 | 0.00 | 0.02 | 0.01 | 65 | 1001.0 |
| 20260505091954 | 66 | 184 | 5.0 | 12.0 | 0.00 | 0.02 | 0.01 | 65 | 1000.8 |
| 20260505091428 | 66 | 192 | 5.0 | 13.0 | 0.00 | 0.02 | 0.01 | 65 | 1001.0 |
| 20260505091415 | 66 | 220 | 4.0 | 13.0 | 0.00 | 0.02 | 0.01 | 65 | 1001.0 |
| 20260505090404 | 66 | 157 | 4.0 | 10.0 | 0.00 | 0.02 | 0.01 | 65 | 1001.1 |
| 20260505085906 | 66 | 187 | 5.0 | 13.0 | 0.00 | 0.02 | 0.01 | 65 | 1001.1 |
| 20260505085358 | 66 | 224 | 5.0 | 19.0 | 0.00 | 0.02 | 0.01 | 65 | 1001.2 |
| 20260505084859 | 66 | 194 | 5.0 | 19.0 | 0.00 | 0.02 | 0.01 | 65 | 1000.7 |
| 20260505084329 | 66 | 184 | 5.0 | 16.0 | 0.00 | 0.02 | 0.01 | 65 | 1001.0 |
| 20260505083829 | 66 | 174 | 6.0 | 15.0 | 0.00 | 0.02 | 0.01 | 66 | 1001.0 |
| 20260505083305 | 66 | 181 | 5.0 | 13.0 | 0.00 | 0.02 | 0.01 | 66 | 1001.1 |
| 20260505082808 | 66 | 261 | 5.0 | 14.0 | 0.00 | 0.02 | 0.01 | 67 | 1001.1 |
| 20260505082244 | 66 | 182 | 5.0 | 14.0 | 0.00 | 0.02 | 0.01 | 67 | 1001.1 |
| 20260505082012 | 66 | 194 | 5.0 | 11.0 | 0.00 | 0.02 | 0.01 | 67 | 1001.0 |
| 20260505081215 | 66 | 180 | 5.0 | 11.0 | 0.00 | 0.02 | 0.01 | 67 | 1000.8 |
| 20260505080716 | 66 | 175 | 4.0 | 7.0 | 0.00 | 0.02 | 0.01 | 68 | 1000.7 |
| 20260505080137 | 66 | 200 | 4.0 | 9.0 | 0.00 | 0.02 | 0.01 | 68 | 1000.6 |
| 20260505075624 | 66 | 177 | 4.0 | 9.0 | 0.00 | 0.02 | 0.01 | 67 | 1000.5 |
| 20260505075356 | 66 | 278 | 5.0 | 10.0 | 0.00 | 0.02 | 0.01 | 67 | 1000.7 |
| 20260505074606 | 66 | 188 | 5.0 | 10.0 | 0.00 | 0.02 | 0.01 | 67 | 1000.6 |
| 20260505074106 | 66 | 163 | 4.0 | 10.0 | 0.00 | 0.02 | 0.01 | 67 | 1000.6 |
| 20260505073804 | 66 | 181 | 4.0 | 11.0 | 0.00 | 0.02 | 0.01 | 67 | 1000.6 |
| 20260505073035 | 66 | 174 | 5.0 | 11.0 | 0.00 | 0.02 | 0.01 | 67 | 1000.6 |
| 20260505072507 | 67 | 165 | 7.0 | 20.0 | 0.00 | 0.02 | 0.01 | 66 | 1000.7 |
| 20260505071950 | 67 | 169 | 7.0 | 20.0 | 0.00 | 0.02 | 0.01 | 65 | 1000.6 |
| 20260505071453 | 67 | 211 | 6.0 | 17.0 | 0.00 | 0.02 | 0.01 | 65 | 1000.6 |
| 20260505070923 | 67 | 178 | 6.0 | 14.0 | 0.00 | 0.02 | 0.01 | 65 | 1000.5 |
| 20260505070646 | 67 | 202 | 6.0 | 14.0 | 0.00 | 0.02 | 0.01 | 65 | 1000.5 |